Location: Unspecified
(0.0000°N, 0.0000°E)
Time: 02:16:05
(UTC+00:00)

CZ-3C DEB - Pass Details

Date: 14 February 2026
Orbit: 610 x 36841 km, 20.5° (Epoch: 4 October)

Event Time Altitude Azimuth Distance (km) Brightness Sun altitude
Exits shadow 04:59:31 24° 272° (W) 2,663 ? -18.2°
Maximum altitude 13:45:15 63° 82° (E) 24,784 ? 64.0°
Drops below altitude 10° 15:20:20 10° 109° (ESE) 9,809 ? 42.1°
Sets 15:24:47 0° 110° (ESE) 9,562 ? 41.0°
